Regional Weather Roundup
Issued by NWS

Home | Current Version | Previous Version | Graphics & Text | Print | Product List | Glossary On
Versions: 1 2 3 4 5 6 7 8 9 10 11 12 13 14 15 16 17 18 19 20 21 22 23 24 25 26 27 28 29 30 31 32 33 34 35 36 37 38 39 40 41 42 43 44 45 46 47 48 49 50
000
ASUS43 KTOP 260559
RWRKS

WEATHER ROUNDUP FOR KANSAS
NATIONAL WEATHER SERVICE GOODLAND KS
100 AM CDT WED JUL 26 2017

NOTE:  "FAIR" INDICATES FEW OR NO CLOUDS BELOW 12,000 FEET WITH NO
SIGNIFICANT WEATHER AND/OR OBSTRUCTIONS TO VISIBILITY.

KSZ001>006-013>018-027>032-041>047-260700-
NORTHWEST KANSAS

CITY           SKY/WX    TMP DP  RH WIND       PRES   REMARKS
GOODLAND       CLOUDY    74  62  66 N6        29.98F
6HR MIN TEMP:  74; 6HR MAX TEMP:  96;

HAYS           PTCLDY    84  67  56 S15       29.94S
HILL CITY      CLOUDY    87  65  47 S17G25    29.90F
6HR MIN TEMP:  87; 6HR MAX TEMP:  99;

RUSSELL        CLOUDY    85  64  49 S17       29.93S
6HR MIN TEMP:  85; 6HR MAX TEMP:  97;

$$

KSZ061>065-074>080-084>089-260700-
SOUTHWEST KANSAS

CITY           SKY/WX    TMP DP  RH WIND       PRES   REMARKS
DODGE CITY     MOCLDY    85  63  47 S21G29    29.99S
6HR MIN TEMP:  85; 6HR MAX TEMP:  98;

ELKHART          N/A     76  52  43 S9          N/A
GARDEN CITY    CLOUDY    83  64  52 S17G25    29.97F
6HR MIN TEMP:  83; 6HR MAX TEMP:  98;

GREAT BEND     CLEAR     83  67  58 S14       29.97
LIBERAL        CLOUDY    83  63  50 S17       30.01S
$$

KSZ066>073-081>083-090>101-260700-
SOUTHEAST KANSAS

CITY           SKY/WX    TMP DP  RH WIND       PRES   REMARKS
CHANUTE        CLEAR     80  72  76 S7        30.04S
6HR MIN TEMP:  79; 6HR MAX TEMP:  94;

COFFEYVILLE    CLEAR     80  73  79 S6        30.03S
6HR MIN TEMP:  80; 6HR MAX TEMP:  93;

HUTCHINSON     PTCLDY    85  68  56 S16       29.98S
6HR MIN TEMP:  84; 6HR MAX TEMP:  98;

MEDICINE LODGE   N/A     84  65  52 S9        29.99R
NEWTON         CLOUDY    78  70  76 SE9       30.02R
PARSONS        CLEAR     81  72  74 S6        30.04F
6HR MIN TEMP:  80; 6HR MAX TEMP:  92;

WICHITA INTL   CLOUDY    83  71  67 S14       30.00R
6HR MIN TEMP:  83; 6HR MAX TEMP:  95;

WICHITA JABRA  CLOUDY    83  71  67 S14       30.01R
6HR MIN TEMP:  83; 6HR MAX TEMP:  94;

WINFIELD       CLEAR     83  72  69 S15       30.02S
6HR MIN TEMP:  83; 6HR MAX TEMP:  95;

$$

KSZ007>012-019>026-033>040-048>060-102>105-260700-
NORTHEAST KANSAS

CITY           SKY/WX    TMP DP  RH WIND       PRES   REMARKS
CONCORDIA      MOCLDY    82  70  66 SE14      29.95F
6HR MIN TEMP:  82; 6HR MAX TEMP:  94;

EMPORIA        CLEAR     80  71  74 S13       30.02R
6HR MIN TEMP:  80; 6HR MAX TEMP:  92;

LAWRENCE       CLOUDY    76  74  93 E7        30.02R
6HR MIN TEMP:  76; 6HR MAX TEMP:  93;

MANHATTAN      PTCLDY    84  71  65 S10       29.98R
6HR MIN TEMP:  84; 6HR MAX TEMP:  93;

OLATHE IND     CLEAR     80  73  79 SE6       30.05R
6HR MIN TEMP:  80; 6HR MAX TEMP:  90;

OLATHE EXE     CLEAR     79  74  84 S7        30.05R
6HR MIN TEMP:  79; 6HR MAX TEMP:  88;

SALINA         PTCLDY    87  68  52 S16       29.96S
6HR MIN TEMP:  87; 6HR MAX TEMP:  99;

TOPEKA BILLARD PTCLDY    81  72  74 SE5       30.01R
6HR MIN TEMP:  81; 6HR MAX TEMP:  92;

TOPEKA FORBES  PTCLDY    80  72  76 S8        30.02R
6HR MIN TEMP:  80; 6HR MAX TEMP:  93;

$$



USA.gov is the U.S. government's official web portal to all federal, state and local government web resources and services.